Tallevast, FL

2:31 PM EST on December 05, 2016 (GMT -0500)
Sarasota-bradenton

Weather History for KSRQ - September, 2014

Change the Weather History Date:

Monday, September 22, 2014

  Actual Average Record
Temperature  
Mean Temperature 79 °F 81 °F  
Max Temperature 85 °F 89 °F 94 °F (1992)
Min Temperature 72 °F 74 °F 60 °F (1913)
Degree Days  
Heating Degree Days 0 0  
Month to date heating degree days 0 0  
Since 1 July heating degree days 0 0  
Cooling Degree Days 14 16  
Month to date cooling degree days 329 369  
Year to date cooling degree days 2875 2666  
Growing Degree Days 28 (Base 50)    
Moisture  
Dew Point 72 °F    
Average Humidity 88    
Maximum Humidity 100    
Minimum Humidity 69    
Precipitation  
Precipitation 0.53 in 0.19 in 2.00 in (1982)
Month to date precipitation 3.83 5.81  
Year to date precipitation 35.31 44.14  
Sea Level Pressure  
Sea Level Pressure 30.00 in    
Wind  
Wind Speed 5 mph (SSE)    
Max Wind Speed 22 mph    
Max Gust Speed 27 mph    
Visibility 9 miles    
Events Rain , Thunderstorm    
T = Trace of Precipitation, MM = Missing Value Source: NWS Daily Summary

Daily Weather History Graph

Daily Weather History Graph

Search for Another Location

Airport or City:

Trip Planner

Search our weather history database for the weather conditions in past years. The results will help you decide how hot, cold, wet, or windy it might be!

Date:

Astronomy

Sep. 22, 2014 Rise Set
Actual Time 7:18 AM EDT 7:26 PM EDT
Civil Twilight 6:55 AM EDT 7:49 PM EDT
Nautical Twilight 6:28 AM EDT 8:17 PM EDT
Astronomical Twilight 6:00 AM EDT 8:44 PM EDT
Moon 5:52 AM EDT (9/22) 6:30 PM EDT (9/22)
Length of Visible Light 12h 54m
Length of Day
12h 07m
Waning Crescent, 2% of the Moon is Illuminated
Sep 22
Waning Crescent
Sep 24
New
Oct 1
First Quarter
Oct 8
Full
Oct 15
Last Quarter

Hourly Weather History & Observations

Time (EDT) Temp. Heat Index Dew Point Humidity Pressure Visibility Wind Dir Wind Speed Gust Speed Precip Events Conditions
12:53 AM 75.9 °F - 73.0 °F 91% 29.99 in 10.0 mi NE 3.5 mph - 0.00 in   Partly Cloudy
1:53 AM 75.0 °F - 73.0 °F 94% 29.98 in 10.0 mi ENE 3.5 mph - N/A   Clear
2:53 AM 75.9 °F - 73.9 °F 94% 29.97 in 10.0 mi Calm Calm - N/A   Partly Cloudy
4:53 AM 75.0 °F - 73.9 °F 96% 29.96 in 10.0 mi East 4.6 mph - N/A   Clear
5:53 AM 75.0 °F - 73.9 °F 96% 29.97 in 10.0 mi ENE 3.5 mph - N/A Thunderstorm Partly Cloudy
6:53 AM 75.0 °F - 73.9 °F 96% 30.00 in 10.0 mi NNW 4.6 mph - N/A Thunderstorm Partly Cloudy
7:53 AM 75.9 °F - 73.9 °F 94% 30.01 in 7.0 mi South 5.8 mph - 0.01 in Rain , Thunderstorm Light Rain
8:00 AM 75.9 °F - 73.9 °F 94% 30.01 in 5.0 mi Calm Calm - 0.01 in Rain Rain
8:53 AM 75.9 °F - 75.0 °F 97% 30.02 in 10.0 mi ESE 4.6 mph - 0.11 in   Scattered Clouds
9:53 AM 82.0 °F 90.2 °F 77.0 °F 85% 30.01 in 10.0 mi SE 6.9 mph - N/A   Clear
10:53 AM 82.9 °F 90.2 °F 75.0 °F 77% 30.02 in 10.0 mi ESE 5.8 mph - N/A   Scattered Clouds
11:53 AM 84.9 °F 93.3 °F 75.0 °F 72% 30.01 in 10.0 mi South 8.1 mph - N/A   Scattered Clouds
12:05 PM 84.9 °F 92.1 °F 73.9 °F 69% 30.02 in 10.0 mi SSW 10.4 mph - N/A   Mostly Cloudy
12:09 PM 84.9 °F 92.1 °F 73.9 °F 69% 30.01 in 10.0 mi SSW 18.4 mph 25.3 mph N/A Thunderstorm Thunderstorm
12:36 PM 80.1 °F 82.3 °F 66.9 °F 64% 30.02 in 10.0 mi SSW 13.8 mph - N/A Thunderstorm Partly Cloudy
12:53 PM 80.1 °F 82.9 °F 69.1 °F 69% 30.02 in 10.0 mi South 6.9 mph - N/A Thunderstorm Partly Cloudy
1:22 PM 75.9 °F - 70.0 °F 82% 30.02 in 10.0 mi NNW 9.2 mph 20.7 mph 0.00 in Rain Light Rain
1:53 PM 75.0 °F - 70.0 °F 84% 30.00 in 10.0 mi WNW 8.1 mph - 0.00 in Rain Light Rain
2:02 PM 75.0 °F - 71.1 °F 87% 30.00 in 10.0 mi WNW 10.4 mph - 0.00 in Thunderstorm Overcast
2:16 PM 75.9 °F - 72.0 °F 87% 29.99 in 10.0 mi WNW 13.8 mph 21.9 mph 0.00 in   Overcast
2:39 PM 73.9 °F - 71.1 °F 91% 30.00 in 1.8 mi WNW 6.9 mph - 0.06 in Rain Heavy Rain
2:53 PM 73.9 °F - 73.0 °F 97% 29.98 in 7.0 mi NW 4.6 mph - 0.07 in Rain Light Rain
3:53 PM 75.0 °F - 73.0 °F 94% 29.99 in 9.0 mi Calm Calm - 0.02 in Rain Light Rain
4:53 PM 75.0 °F - 73.0 °F 94% 29.99 in 8.0 mi SSW 9.2 mph - 0.13 in Rain Light Rain
5:53 PM 75.0 °F - 72.0 °F 90% 29.96 in 5.0 mi SW 11.5 mph - 0.10 in Rain Rain
6:53 PM 75.9 °F - 71.1 °F 85% 29.98 in 10.0 mi SSW 9.2 mph - 0.05 in Rain Light Rain
7:53 PM 73.9 °F - 72.0 °F 93% 29.99 in 10.0 mi SSE 6.9 mph - 0.03 in Rain Light Rain
8:36 PM 73.0 °F - 71.1 °F 93% 29.98 in 10.0 mi East 3.5 mph - 0.01 in   Scattered Clouds
8:53 PM 73.0 °F - 71.1 °F 93% 29.99 in 10.0 mi Calm Calm - 0.01 in   Partly Cloudy
9:53 PM 72.0 °F - 71.1 °F 97% 29.98 in 10.0 mi ESE 4.6 mph - N/A   Scattered Clouds
10:53 PM 72.0 °F - 71.1 °F 97% 29.98 in 10.0 mi East 5.8 mph - N/A   Clear
11:53 PM 72.0 °F - 71.1 °F 97% 29.99 in 10.0 mi East 3.5 mph - N/A   Clear